When you browse on this site, cookies collect data to enhance your experience and personalize the content and advertising you see.
Visit our Privacy Policy to learn more. By continuing to use the site, you agree to this use of cookies and data.
EN

Hourly Weather Piaui

Today, 5 August, Wednesday

Time Temperature Precipitation Wind Pressure Humidity
00:00 +21°C° 0 mm 3 mps 724 mmHg 73%
01:00 +21°C° 0 mm 3 mps 724 mmHg 74%
02:00 +21°C° 0 mm 4 mps 723 mmHg 75%
03:00 +20°C° 0 mm 4 mps 722 mmHg 76%
04:00 +20°C° 0 mm 4 mps 723 mmHg 78%
05:00 +19°C° 0 mm 3 mps 723 mmHg 80%
06:00 +19°C° 0 mm 3 mps 723 mmHg 82%
07:00 +21°C° 0 mm 4 mps 723 mmHg 72%
08:00 +23°C° 0 mm 5 mps 724 mmHg 62%
09:00 +26°C° 0 mm 6 mps 724 mmHg 52%
10:00 +28°C° 0 mm 6 mps 724 mmHg 46%
11:00 +29°C° 0 mm 6 mps 724 mmHg 40%
12:00 +32°C° 0 mm 6 mps 724 mmHg 34%
13:00 +32°C° 0 mm 6 mps 723 mmHg 33%
14:00 +33°C° 0 mm 5 mps 722 mmHg 32%
15:00 +33°C° 0 mm 5 mps 721 mmHg 31%
16:00 +30°C° 0 mm 4 mps 721 mmHg 36%
17:00 +28°C° 0 mm 4 mps 721 mmHg 41%
18:00 +27°C° 0 mm 3 mps 722 mmHg 46%
19:00 +25°C° 0 mm 3 mps 722 mmHg 50%
20:00 +24°C° 0 mm 2 mps 722 mmHg 55%
21:00 +23°C° 0 mm 2 mps 722 mmHg 59%
22:00 +21°C° 0 mm 2 mps 723 mmHg 61%
23:00 +21°C° 0 mm 2 mps 723 mmHg 64%

Tomorrow, 6 August, Thursday

Time Temperature Precipitation Wind Pressure Humidity
00:00 +21°C° 0 mm 3 mps 723 mmHg 66%
01:00 +20°C° 0 mm 3 mps 723 mmHg 69%
02:00 +20°C° 0 mm 3 mps 722 mmHg 72%
03:00 +20°C° 0 mm 4 mps 722 mmHg 75%
04:00 +19°C° 0 mm 4 mps 722 mmHg 76%
05:00 +19°C° 0 mm 4 mps 722 mmHg 76%
06:00 +18°C° 0 mm 4 mps 722 mmHg 76%
07:00 +21°C° 0 mm 4 mps 723 mmHg 66%
08:00 +23°C° 0 mm 5 mps 723 mmHg 55%
09:00 +26°C° 0 mm 6 mps 724 mmHg 44%
10:00 +28°C° 0 mm 6 mps 724 mmHg 41%
11:00 +30°C° 0 mm 6 mps 724 mmHg 37%
12:00 +33°C° 0 mm 6 mps 723 mmHg 33%
13:00 +33°C° 0 mm 6 mps 722 mmHg 32%
14:00 +34°C° 0 mm 5 mps 722 mmHg 31%
15:00 +34°C° 0 mm 5 mps 721 mmHg 29%
16:00 +32°C° 0 mm 4 mps 721 mmHg 31%
17:00 +30°C° 0 mm 4 mps 721 mmHg 33%
18:00 +28°C° 0 mm 3 mps 721 mmHg 35%
19:00 +27°C° 0 mm 3 mps 722 mmHg 37%
20:00 +26°C° 0 mm 3 mps 722 mmHg 40%
21:00 +24°C° 0 mm 3 mps 722 mmHg 43%
22:00 +24°C° 0 mm 3 mps 723 mmHg 45%
23:00 +22°C° 0 mm 3 mps 723 mmHg 48%

Day after tomorrow, 7 August, Friday

Time Temperature Precipitation Wind Pressure Humidity
00:00 +22°C° 0 mm 3 mps 723 mmHg 50%
01:00 +21°C° 0 mm 4 mps 723 mmHg 53%
02:00 +20°C° 0 mm 4 mps 722 mmHg 55%
03:00 +19°C° 0 mm 4 mps 722 mmHg 58%
04:00 +19°C° 0 mm 4 mps 722 mmHg 66%
05:00 +19°C° 0 mm 4 mps 722 mmHg 74%
06:00 +18°C° 0 mm 4 mps 722 mmHg 82%
07:00 +20°C° 0 mm 4 mps 723 mmHg 72%
08:00 +23°C° 0 mm 5 mps 724 mmHg 62%
09:00 +26°C° 0 mm 5 mps 724 mmHg 53%
10:00 +28°C° 0 mm 5 mps 724 mmHg 47%
11:00 +30°C° 0 mm 5 mps 724 mmHg 41%
12:00 +32°C° 0 mm 5 mps 724 mmHg 35%
13:00 +33°C° 0 mm 5 mps 723 mmHg 34%
14:00 +33°C° 0 mm 5 mps 722 mmHg 33%
15:00 +34°C° 0 mm 5 mps 721 mmHg 32%
16:00 +32°C° 0 mm 4 mps 721 mmHg 37%
17:00 +29°C° 0 mm 3 mps 721 mmHg 41%
18:00 +27°C° 0 mm 2 mps 721 mmHg 46%
19:00 +26°C° 0 mm 3 mps 722 mmHg 50%
20:00 +25°C° 0 mm 3 mps 722 mmHg 55%
21:00 +24°C° 0 mm 3 mps 723 mmHg 59%
22:00 +22°C° 0 mm 3 mps 723 mmHg 61%
23:00 +21°C° 0 mm 3 mps 723 mmHg 63%

8 August, Saturday

Time Temperature Precipitation Wind Pressure Humidity
00:00 +21°C° 0 mm 3 mps 723 mmHg 65%
01:00 +20°C° 0 mm 3 mps 722 mmHg 67%
02:00 +20°C° 0 mm 3 mps 722 mmHg 69%
03:00 +20°C° 0 mm 4 mps 722 mmHg 70%
04:00 +19°C° 0 mm 3 mps 722 mmHg 75%
05:00 +19°C° 0 mm 3 mps 722 mmHg 80%
06:00 +18°C° 0 mm 3 mps 723 mmHg 84%
07:00 +20°C° 0 mm 4 mps 723 mmHg 74%
08:00 +23°C° 0 mm 5 mps 724 mmHg 64%
09:00 +26°C° 0 mm 5 mps 725 mmHg 54%
10:00 +28°C° 0 mm 5 mps 724 mmHg 48%
11:00 +30°C° 0 mm 5 mps 724 mmHg 41%
12:00 +33°C° 0 mm 4 mps 724 mmHg 35%
13:00 +34°C° 0 mm 4 mps 723 mmHg 33%
14:00 +35°C° 0 mm 4 mps 722 mmHg 31%
15:00 +35°C° 0 mm 4 mps 721 mmHg 29%
16:00 +33°C° 0 mm 4 mps 721 mmHg 32%
17:00 +31°C° 0 mm 3 mps 721 mmHg 34%
18:00 +29°C° 0 mm 2 mps 721 mmHg 37%
19:00 +27°C° 0 mm 2 mps 721 mmHg 41%
20:00 +25°C° 0 mm 2 mps 722 mmHg 45%
21:00 +24°C° 0 mm 2 mps 722 mmHg 49%
22:00 +23°C° 0 mm 2 mps 722 mmHg 52%
23:00 +23°C° 0 mm 2 mps 722 mmHg 55%

9 August, Sunday

Time Temperature Precipitation Wind Pressure Humidity
00:00 +21°C° 0 mm 3 mps 722 mmHg 58%
01:00 +21°C° 0 mm 3 mps 722 mmHg 65%
02:00 +21°C° 0 mm 3 mps 722 mmHg 71%
03:00 +21°C° 0 mm 3 mps 721 mmHg 77%
04:00 +20°C° 0 mm 3 mps 722 mmHg 80%
05:00 +20°C° 0 mm 3 mps 722 mmHg 82%
06:00 +19°C° 0 mm 3 mps 722 mmHg 85%
07:00 +21°C° 0 mm 4 mps 723 mmHg 75%
08:00 +25°C° 0 mm 4 mps 723 mmHg 64%
09:00 +27°C° 0 mm 5 mps 724 mmHg 54%
10:00 +29°C° 0 mm 5 mps 723 mmHg 47%
11:00 +32°C° 0 mm 4 mps 723 mmHg 40%
12:00 +34°C° 0 mm 4 mps 723 mmHg 33%
13:00 +35°C° 0 mm 4 mps 722 mmHg 32%
14:00 +35°C° 0 mm 4 mps 721 mmHg 30%
15:00 +36°C° 0 mm 4 mps 720 mmHg 28%
16:00 +34°C° 0 mm 3 mps 720 mmHg 32%
17:00 +31°C° 0 mm 2 mps 720 mmHg 36%
18:00 +29°C° 0 mm 2 mps 720 mmHg 39%
19:00 +28°C° 0 mm 2 mps 721 mmHg 45%
20:00 +26°C° 0 mm 3 mps 721 mmHg 50%
21:00 +25°C° 0 mm 3 mps 722 mmHg 55%
22:00 +24°C° 0 mm 3 mps 722 mmHg 58%
23:00 +22°C° 0 mm 3 mps 721 mmHg 62%

10 August, Monday

Time Temperature Precipitation Wind Pressure Humidity
00:00 +21°C° 0 mm 2 mps 721 mmHg 65%
01:00 +21°C° 0 mm 3 mps 721 mmHg 68%
02:00 +21°C° 0 mm 3 mps 721 mmHg 70%
03:00 +21°C° 0 mm 3 mps 720 mmHg 73%
04:00 +20°C° 0 mm 3 mps 720 mmHg 75%
05:00 +20°C° 0 mm 3 mps 720 mmHg 76%
06:00 +19°C° 0 mm 3 mps 721 mmHg 78%
07:00 +22°C° 0 mm 4 mps 721 mmHg 67%
08:00 +25°C° 0 mm 4 mps 722 mmHg 55%
09:00 +27°C° 0 mm 5 mps 723 mmHg 44%
10:00 +29°C° 0 mm 4 mps 722 mmHg 38%
11:00 +33°C° 0 mm 4 mps 722 mmHg 32%
12:00 +35°C° 0 mm 4 mps 722 mmHg 26%
13:00 +35°C° 0 mm 4 mps 721 mmHg 25%
14:00 +36°C° 0 mm 4 mps 720 mmHg 24%
15:00 +36°C° 0 mm 3 mps 719 mmHg 23%
16:00 +34°C° 0 mm 3 mps 719 mmHg 26%
17:00 +31°C° 0 mm 2 mps 719 mmHg 30%
18:00 +29°C° 0 mm 2 mps 719 mmHg 34%
19:00 +28°C° 0 mm 2 mps 719 mmHg 37%
20:00 +26°C° 0 mm 2 mps 720 mmHg 41%
21:00 +24°C° 0 mm 2 mps 720 mmHg 45%
22:00 +24°C° 0 mm 2 mps 720 mmHg 48%
23:00 +24°C° 0 mm 3 mps 720 mmHg 51%
Show more